Simultaneous Nadir Overpasses (SNOs) Predictions

Prediction of SNOs between AQUA and GOES-15 Satellite Orbit:

Table of predicted SNOs for the next 14.0 days since TLE Epoch: 10/29/2022
Index Date Time (AQUA) AQUA Lat,Lon GOES-15 Lat,Lon Distance(km) Time Diff (sec)
1 10/30/2022 10:15:46 0.15,-128.53 0.15,-128.47 6.36 80
2 11/01/2022 10:02:53 -0.50,-125.39 0.14,-128.46 348.95 80
3 11/01/2022 22:24:07 -0.56,-130.54 -0.12,-128.37 245.64 80
4 11/03/2022 22:11:13 0.06,-127.39 -0.12,-128.36 109.97 80
5 11/04/2022 10:32:18 1.00,-132.50 0.10,-128.44 462.55 80
6 11/05/2022 21:58:20 0.77,-124.26 -0.13,-128.35 465.83 80
7 11/06/2022 10:19:25 0.29,-129.37 0.11,-128.43 106.76 80
8 11/08/2022 10:06:30 -0.33,-126.22 0.11,-128.41 248.85 80
9 11/08/2022 22:27:43 -0.77,-131.36 -0.09,-128.32 346.22 80
10 11/10/2022 22:14:49 -0.06,-128.23 -0.10,-128.30 9.07 80
